Bainbridge, GA

12:56 AM EDT on July 21, 2017 (GMT -0400)
Decatur County Industrial

Weather History for KBGE - May, 2013

Change the Weather History Date:

Friday, May 3, 2013

  Actual Average (KTLH) Record (KTLH)
Temperature  
Mean Temperature 68 °F -  
Max Temperature 71 °F 83 °F 94 °F (2002)
Min Temperature 64 °F 58 °F 42 °F (1971)
Cooling Degree Days 2    
Growing Degree Days 18 (Base 50)    
Moisture  
Dew Point 63 °F    
Average Humidity 82    
Maximum Humidity 94    
Minimum Humidity 73    
Precipitation  
Precipitation 0.00 in - - ()
Sea Level Pressure  
Sea Level Pressure 29.89 in    
Wind  
Wind Speed 13 mph (ENE)    
Max Wind Speed 22 mph    
Max Gust Speed 33 mph    
Visibility 9 miles    
Events Rain    
Averages and records for this station are not official NWS values.
T = Trace of Precipitation, MM = Missing Value Source: NWS Daily Summary

Daily Weather History Graph

Daily Weather History Graph

Search for Another Location

Airport or City:

Trip Planner

Search our weather history database for the weather conditions in past years. The results will help you decide how hot, cold, wet, or windy it might be!

Date:

Astronomy

May. 03, 2013 Rise Set
Actual Time 6:52 AM EDT 8:18 PM EDT
Civil Twilight 6:26 AM EDT 8:44 PM EDT
Nautical Twilight 5:55 AM EDT 9:15 PM EDT
Astronomical Twilight 5:23 AM EDT 9:47 PM EDT
Moon 2:51 AM EDT (5/3) 2:36 PM EDT (5/3)
Length of Visible Light 14h 18m
Length of Day
13h 26m
Last Quarter, 37% of the Moon is Illuminated
May 3
Last Quarter
May 9
New
May 18
First Quarter
May 25
Full
May 31
Last Quarter

Hourly Weather History & Observations

Time (EDT) Temp. Dew Point Humidity Pressure Visibility Wind Dir Wind Speed Gust Speed Precip Events Conditions
12:15 AM 68.0 °F 64.4 °F 88% 29.96 in 10.0 mi NE 10.4 mph - N/A   Scattered Clouds
12:35 AM 68.0 °F 64.4 °F 88% 29.96 in 10.0 mi ENE 13.8 mph - N/A   Mostly Cloudy
12:55 AM 69.8 °F 64.4 °F 83% 29.95 in 10.0 mi ENE 11.5 mph 18.4 mph N/A   Scattered Clouds
1:15 AM 69.8 °F 64.4 °F 83% 29.95 in 10.0 mi ENE 10.4 mph 18.4 mph N/A   Mostly Cloudy
1:35 AM 68.0 °F 62.6 °F 83% 29.94 in 10.0 mi NE 9.2 mph - N/A   Overcast
1:55 AM 68.0 °F 62.6 °F 83% 29.93 in 7.0 mi NE 10.4 mph - N/A   Overcast
2:15 AM 68.0 °F 62.6 °F 83% 29.93 in 10.0 mi NE 11.5 mph - N/A   Mostly Cloudy
2:35 AM 68.0 °F 62.6 °F 83% 29.91 in 10.0 mi NE 12.7 mph - N/A   Mostly Cloudy
2:55 AM 68.0 °F 62.6 °F 83% 29.91 in 10.0 mi NE 11.5 mph - N/A   Mostly Cloudy
3:15 AM 66.2 °F 62.6 °F 88% 29.90 in 7.0 mi NE 10.4 mph - N/A   Mostly Cloudy
3:35 AM 64.4 °F 62.6 °F 94% 29.90 in 10.0 mi NE 10.4 mph - N/A   Mostly Cloudy
3:55 AM 66.2 °F 62.6 °F 88% 29.90 in 10.0 mi NE 10.4 mph - N/A   Mostly Cloudy
4:15 AM 66.2 °F 62.6 °F 88% 29.89 in 10.0 mi NE 12.7 mph 17.3 mph N/A   Overcast
4:35 AM 68.0 °F 62.6 °F 83% 29.89 in 10.0 mi NE 10.4 mph - N/A   Overcast
4:55 AM 68.0 °F 62.6 °F 83% 29.89 in 10.0 mi NE 10.4 mph - N/A   Overcast
5:15 AM 68.0 °F 62.6 °F 83% 29.89 in 10.0 mi NE 10.4 mph - N/A   Overcast
5:35 AM 68.0 °F 60.8 °F 78% 29.89 in 10.0 mi NE 10.4 mph - N/A   Overcast
5:55 AM 68.0 °F 60.8 °F 78% 29.89 in 10.0 mi ENE 16.1 mph 20.7 mph N/A   Mostly Cloudy
6:15 AM 68.0 °F 60.8 °F 78% 29.89 in 10.0 mi ENE 13.8 mph 19.6 mph N/A   Mostly Cloudy
6:35 AM 68.0 °F 60.8 °F 78% 29.90 in 10.0 mi ENE 15.0 mph 23.0 mph N/A   Mostly Cloudy
6:55 AM 68.0 °F 60.8 °F 78% 29.90 in 10.0 mi ENE 13.8 mph 20.7 mph N/A   Mostly Cloudy
7:15 AM 68.0 °F 60.8 °F 78% 29.90 in 10.0 mi ENE 15.0 mph 19.6 mph N/A   Mostly Cloudy
7:35 AM 68.0 °F 60.8 °F 78% 29.91 in 10.0 mi ENE 15.0 mph 25.3 mph N/A   Scattered Clouds
7:55 AM 68.0 °F 60.8 °F 78% 29.91 in 10.0 mi ENE 16.1 mph 23.0 mph N/A   Mostly Cloudy
8:15 AM 68.0 °F 60.8 °F 78% 29.91 in 10.0 mi ENE 17.3 mph 24.2 mph N/A   Mostly Cloudy
8:35 AM 68.0 °F 60.8 °F 78% 29.91 in 10.0 mi ENE 20.7 mph 26.5 mph N/A   Scattered Clouds
8:55 AM 68.0 °F 60.8 °F 78% 29.92 in 7.0 mi ENE 19.6 mph 27.6 mph N/A   Mostly Cloudy
9:15 AM 64.4 °F 60.8 °F 88% 29.92 in 5.0 mi ENE 15.0 mph 25.3 mph N/A   Overcast
9:35 AM 64.4 °F 60.8 °F 88% 29.93 in 3.0 mi ENE 19.6 mph 25.3 mph N/A Rain Light Rain
9:55 AM 64.4 °F 62.6 °F 94% 29.92 in 4.0 mi ENE 15.0 mph 23.0 mph N/A Rain Light Rain
10:15 AM 66.2 °F 62.6 °F 88% 29.92 in 7.0 mi ENE 17.3 mph 24.2 mph N/A Rain Light Rain
10:35 AM 68.0 °F 62.6 °F 83% 29.92 in 10.0 mi ENE 15.0 mph - N/A   Mostly Cloudy
10:55 AM 69.8 °F 62.6 °F 78% 29.91 in 10.0 mi ENE 17.3 mph 23.0 mph N/A   Scattered Clouds
11:15 AM 69.8 °F 62.6 °F 78% 29.92 in 5.0 mi ENE 17.3 mph 27.6 mph N/A   Haze
11:35 AM 68.0 °F 62.6 °F 83% 29.91 in 4.0 mi ENE 18.4 mph 29.9 mph N/A Rain Light Rain
11:55 AM 68.0 °F 62.6 °F 83% 29.92 in 5.0 mi ENE 19.6 mph 33.4 mph N/A   Haze
12:15 PM 68.0 °F 62.6 °F 83% 29.92 in 7.0 mi ENE 17.3 mph 23.0 mph N/A   Mostly Cloudy
12:35 PM 69.8 °F 62.6 °F 78% 29.91 in 10.0 mi ENE 15.0 mph 24.2 mph N/A   Mostly Cloudy
12:55 PM 69.8 °F 62.6 °F 78% 29.91 in 10.0 mi ENE 15.0 mph 20.7 mph N/A   Mostly Cloudy
1:15 PM 69.8 °F 62.6 °F 78% 29.90 in 10.0 mi East 16.1 mph - N/A   Mostly Cloudy
1:35 PM 71.6 °F 64.4 °F 78% 29.89 in 10.0 mi East 20.7 mph 27.6 mph N/A   Mostly Cloudy
1:55 PM 71.6 °F 62.6 °F 73% 29.89 in 10.0 mi ENE 20.7 mph 25.3 mph N/A   Mostly Cloudy
2:15 PM 71.6 °F 62.6 °F 73% 29.88 in 10.0 mi East 12.7 mph 24.2 mph N/A   Mostly Cloudy
2:35 PM 71.6 °F 62.6 °F 73% 29.88 in 10.0 mi ENE 17.3 mph 25.3 mph N/A   Mostly Cloudy
2:55 PM 71.6 °F 64.4 °F 78% 29.88 in 7.0 mi ENE 18.4 mph 24.2 mph N/A Rain Light Rain
3:15 PM 71.6 °F 62.6 °F 73% 29.87 in 10.0 mi ENE 17.3 mph 21.9 mph N/A   Scattered Clouds
3:35 PM 71.6 °F 64.4 °F 78% 29.87 in 10.0 mi ENE 17.3 mph - N/A   Scattered Clouds
3:55 PM 69.8 °F 64.4 °F 83% 29.86 in 10.0 mi NE 17.3 mph 21.9 mph N/A   Mostly Cloudy
4:15 PM 69.8 °F 64.4 °F 83% 29.86 in 10.0 mi ENE 13.8 mph 20.7 mph N/A   Mostly Cloudy
4:35 PM 71.6 °F 66.2 °F 83% 29.85 in 10.0 mi ENE 15.0 mph 20.7 mph N/A   Mostly Cloudy
4:55 PM 69.8 °F 64.4 °F 83% 29.85 in 7.0 mi ENE 15.0 mph 19.6 mph N/A   Mostly Cloudy
5:15 PM 69.8 °F 64.4 °F 83% 29.85 in 10.0 mi ENE 16.1 mph 20.7 mph N/A   Overcast
5:35 PM 68.0 °F 64.4 °F 88% 29.85 in 3.0 mi ENE 17.3 mph 21.9 mph N/A Rain Light Rain
5:55 PM 68.0 °F 64.4 °F 88% 29.85 in 2.5 mi East 21.9 mph 29.9 mph N/A Rain Light Rain
6:15 PM 68.0 °F 64.4 °F 88% 29.85 in 5.0 mi East 17.3 mph 20.7 mph N/A   Overcast
6:35 PM 68.0 °F 64.4 °F 88% 29.85 in 7.0 mi ENE 15.0 mph 20.7 mph N/A   Overcast
6:55 PM 68.0 °F 64.4 °F 88% 29.85 in 10.0 mi ENE 16.1 mph - N/A   Overcast
7:15 PM 68.0 °F 64.4 °F 88% 29.85 in 10.0 mi ENE 15.0 mph 19.6 mph N/A   Overcast
7:35 PM 68.0 °F 62.6 °F 83% 29.85 in 5.0 mi East 13.8 mph 20.7 mph N/A   Overcast
7:55 PM 68.0 °F 64.4 °F 88% 29.85 in 7.0 mi East 6.9 mph - N/A   Overcast
8:15 PM 68.0 °F 64.4 °F 88% 29.85 in 10.0 mi East 6.9 mph - N/A   Mostly Cloudy
8:35 PM 68.0 °F 62.6 °F 83% 29.86 in 10.0 mi ENE 12.7 mph - N/A   Mostly Cloudy
8:55 PM 68.0 °F 62.6 °F 83% 29.87 in 10.0 mi East 17.3 mph 23.0 mph N/A   Mostly Cloudy
9:15 PM 68.0 °F 60.8 °F 78% 29.87 in 10.0 mi East 13.8 mph 20.7 mph N/A   Overcast
9:35 PM 68.0 °F 60.8 °F 78% 29.87 in 10.0 mi East 13.8 mph 23.0 mph N/A   Mostly Cloudy
9:55 PM 68.0 °F 60.8 °F 78% 29.87 in 10.0 mi East 10.4 mph - N/A   Scattered Clouds
10:15 PM 68.0 °F 60.8 °F 78% 29.88 in 10.0 mi East 12.7 mph 18.4 mph N/A   Mostly Cloudy
10:35 PM 68.0 °F 60.8 °F 78% 29.89 in 10.0 mi East 9.2 mph 19.6 mph N/A   Mostly Cloudy
10:55 PM 68.0 °F 60.8 °F 78% 29.89 in 10.0 mi East 13.8 mph 19.6 mph N/A   Mostly Cloudy
11:15 PM 68.0 °F 60.8 °F 78% 29.88 in 10.0 mi East 8.1 mph - N/A   Scattered Clouds
11:35 PM 68.0 °F 60.8 °F 78% 29.88 in 10.0 mi East 9.2 mph - N/A   Scattered Clouds
11:55 PM 66.2 °F 60.8 °F 83% 29.87 in 10.0 mi East 12.7 mph 17.3 mph N/A   Scattered Clouds